This is the latest recevied weather packets stored in our database for station/object EFHK. If no packets are shown the sender has not sent any weather packets the latest 10 day(s).
| Time | Temp. | Humidity | Pressure | Rain* | Wind** | Luminosity | Snow |
|---|---|---|---|---|---|---|---|
| 1778139800 | 10.56° C | 34% | 1015 hPa | - | - | - | - |
| 1778139203 | 10.56° C | 34% | 1015 hPa | - | - | - | - |
| 1778138604 | 10.56° C | 34% | 1015 hPa | - | - | - | - |
| 1778138002 | 10° C | 31% | 1010.5 hPa | - | - | - | - |
| 1778137401 | 10° C | 31% | 1010.2 hPa | - | - | - | - |
| 1778136798 | 10° C | 31% | 1010.2 hPa | - | - | - | - |
| 1778136199 | 8.89° C | 34% | 1010.2 hPa | - | - | - | - |
| 1778135600 | 8.89° C | 34% | 1010.2 hPa | - | - | - | - |
| 1778135004 | 8.89° C | 34% | 1010.2 hPa | - | - | - | - |
| 1778134400 | 7.78° C | 36% | 1015 hPa | - | - | - | - |
| 1778133802 | 7.78° C | 36% | 1015 hPa | - | - | - | - |
| 1778133202 | 7.78° C | 36% | 1015 hPa | - | - | - | - |
| 1778132601 | 6.67° C | 36% | 1015 hPa | - | - | - | - |
| 1778132001 | 6.67° C | 36% | 1015 hPa | - | - | - | - |
| 1778131403 | 6.67° C | 36% | 1015 hPa | - | - | - | - |
| 1778130802 | 5.56° C | 38% | 1015 hPa | - | - | - | - |
| 1778130203 | 5.56° C | 38% | 1015 hPa | - | - | - | - |
| 1778129601 | 5.56° C | 38% | 1015 hPa | - | - | - | - |
| 1778129005 | 5° C | 44% | 1015 hPa | - | - | - | - |
| 1778128404 | 5° C | 44% | 1015 hPa | - | - | - | - |
| 1778127800 | 5° C | 44% | 1015 hPa | - | - | - | - |
| 1778127203 | 3.89° C | 48% | 1015 hPa | - | - | - | - |
| 1778126728 | 3.89° C | 48% | 1015 hPa | - | - | - | - |
| 1778126001 | 3.89° C | 48% | 1015 hPa | - | - | - | - |
| 1778125527 | 2.78° C | 47% | 1015 hPa | - | - | - | - |
* Rain since midnight (hover to see other rain measurements)
** Current wind speed in m/s (hover to see current wind gust speed)